EW4312 Weather Reports


time (UTC)temp
F
wind
direction
speed
knots
gust
knots
rain 1hr
in
rain 24hr
in
rain mn
in
humidity
%
barometer
mb
20260507114553 47 0 0.0 0.0 0.00 0.00 0.00 80 1012.3
20260507113054 47 0 0.0 0.0 0.00 0.00 0.00 79 1012.1
20260507111554 47 0 0.0 0.0 0.00 0.00 0.00 78 1012.2
20260507110101 48 0 0.0 0.0 0.00 0.00 0.00 76 1012.1
20260507104600 49 0 0.0 0.0 0.00 0.00 0.00 74 1012.0
20260507103125 50 0 0.0 0.0 0.00 0.00 0.00 71 1012.0
20260507101553 51 0 0.0 0.0 0.00 0.00 0.00 69 1011.8
20260507100108 52 0 0.0 0.0 0.00 0.00 0.00 67 1011.5
20260507094552 53 0 0.0 0.0 0.00 0.00 0.00 64 1011.5
20260507093055 55 0 0.0 0.0 0.00 0.00 0.00 61 1011.3
20260507091554 56 0 0.0 0.0 0.00 0.00 0.00 58 1011.1
20260507090100 57 0 0.0 5.2 0.00 0.00 0.00 57 1011.0
20260507084604 57 0 0.0 0.0 0.00 0.00 0.00 56 1010.7
20260507083057 58 0 0.0 3.5 0.00 0.00 0.00 55 1010.6
20260507081600 59 0 0.0 4.3 0.00 0.00 0.00 54 1010.5
20260507080058 60 0 0.0 0.0 0.00 0.00 0.00 53 1010.3
20260507074557 61 0 0.9 6.1 0.00 0.00 0.00 51 1010.0
20260507073054 61 0 0.9 6.1 0.00 0.00 0.00 49 1010.0
20260507071604 62 0 0.0 3.5 0.00 0.00 0.00 48 1009.8
20260507070105 62 200 0.9 5.2 0.00 0.00 0.00 48 1009.7
20260507064556 63 0 0.0 4.3 0.00 0.00 0.00 47 1009.5
20260507063057 64 240 1.7 5.2 0.00 0.00 0.00 46 1009.4
20260507061555 64 0 0.9 5.2 0.00 0.00 0.00 47 1009.1
20260507054609 63 245 0.0 0.0 0.00 0.00 0.00 49 1009.2
20260507053104 64 0 0.0 2.6 0.00 0.00 0.00 48 1009.4
20260507051558 65 0 0.0 0.0 0.00 0.00 0.00 46 1009.2
20260507050059 67 243 0.0 6.1 0.00 0.00 0.00 43 1009.1
20260507044558 68 270 2.6 7.8 0.00 0.00 0.00 42 1009.2
20260507043053 69 0 0.0 7.0 0.00 0.00 0.00 41 1009.2
20260507041602 69 265 5.2 12.2 0.00 0.00 0.00 39 1009.1
20260507040055 71 241 5.2 9.6 0.00 0.00 0.00 40 1009.1
20260507034553 71 200 0.9 9.6 0.00 0.00 0.00 44 1008.8
20260507033056 71 216 1.7 7.8 0.00 0.00 0.00 46 1008.5
20260507031553 71 230 0.0 5.2 0.00 0.00 0.00 47 1008.5
20260507030053 72 0 2.6 7.0 0.00 0.00 0.00 46 1008.7
20260507024556 73 191 0.9 7.0 0.00 0.00 0.00 44 1008.7
20260507023056 74 175 1.7 8.7 0.00 0.00 0.00 44 1008.7
20260507021618 74 169 1.7 8.7 0.00 0.00 0.00 42 1008.9
20260507020112 75 144 1.7 5.2 0.00 0.00 0.00 41 1009.1
20260507014621 75 205 0.9 3.5 0.00 0.00 0.00 40 1009.1
20260507013053 75 0 0.9 6.1 0.00 0.00 0.00 39 1009.4
20260507011605 75 171 2.6 10.4 0.00 0.00 0.00 38 1009.5
20260507010054 75 178 3.5 7.8 0.00 0.00 0.00 38 1009.6
20260507004554 76 190 3.5 12.2 0.00 0.00 0.00 37 1009.6
20260507003057 76 224 2.6 7.8 0.00 0.00 0.00 37 1009.7
20260507001602 76 275 3.5 10.4 0.00 0.00 0.00 37 1009.7
20260507000121 76 258 2.6 12.2 0.00 0.00 0.00 38 1009.7
20260506234615 76 242 5.2 15.6 0.00 0.00 0.00 38 1009.8
20260506233056 77 227 3.5 9.6 0.00 0.00 0.00 37 1009.9
20260506231553 77 221 1.7 9.6 0.00 0.00 0.00 36 1010.0
20260506230103 77 274 4.3 11.3 0.00 0.00 0.00 35 1010.2
20260506224556 77 0 2.6 11.3 0.00 0.00 0.00 38 1010.3
20260506223053 77 240 6.1 12.2 0.00 0.00 0.00 40 1010.7
20260506221600 77 225 1.7 12.2 0.00 0.00 0.00 41 1010.5
20260506220056 78 234 5.2 12.2 0.00 0.00 0.00 39 1010.7
20260506214600 77 263 3.5 11.3 0.00 0.00 0.00 39 1010.8
20260506213059 77 290 0.9 7.8 0.00 0.00 0.00 43 1010.9
20260506211556 77 276 1.7 9.6 0.00 0.00 0.00 44 1011.0
20260506210055 76 0 0.0 7.0 0.00 0.00 0.00 46 1011.1
20260506204551 75 263 0.9 7.0 0.00 0.00 0.00 45 1011.5
20260506203052 75 276 4.3 9.6 0.00 0.00 0.00 44 1011.7
20260506201553 75 266 0.9 7.0 0.00 0.00 0.00 45 1011.8
20260506200051 74 252 2.6 9.6 0.00 0.00 0.00 47 1011.8
20260506194554 74 153 2.6 9.6 0.00 0.00 0.00 47 1011.8
20260506193055 73 0 4.3 10.4 0.00 0.00 0.00 46 1012.1
20260506191601 72 130 0.0 7.8 0.00 0.00 0.00 50 1012.3
20260506190054 72 238 1.7 7.8 0.00 0.00 0.00 48 1012.5
20260506184600 72 0 0.9 8.7 0.00 0.00 0.00 48 1012.5
20260506183105 71 0 0.9 9.6 0.00 0.00 0.00 49 1012.4
20260506181606 71 0 1.7 7.0 0.00 0.00 0.00 48 1012.6
20260506180052 70 208 2.6 7.8 0.00 0.00 0.00 50 1012.5
20260506174556 69 223 0.0 4.3 0.00 0.00 0.00 49 1012.6
20260506173126 69 0 0.9 5.2 0.00 0.00 0.00 50 1012.9
20260506171557 67 82 0.9 4.3 0.00 0.00 0.00 46 1013.0
20260506170107 66 0 0.9 7.0 0.00 0.00 0.00 49 1013.2
20260506164556 65 0 0.0 5.2 0.00 0.00 0.00 48 1013.3
20260506163059 64 150 2.6 5.2 0.00 0.00 0.00 47 1013.4
20260506161557 64 108 0.9 4.3 0.00 0.00 0.00 44 1013.3
20260506160058 63 0 0.0 3.5 0.00 0.00 0.00 45 1013.4
20260506154622 62 67 1.7 7.0 0.00 0.00 0.00 45 1013.3
20260506153054 61 105 0.9 3.5 0.00 0.00 0.00 47 1013.3
20260506151558 60 0 0.0 0.0 0.00 0.00 0.00 49 1013.5
20260506150055 58 0 0.0 0.0 0.00 0.00 0.00 52 1013.5
20260506144559 57 0 0.0 0.0 0.00 0.00 0.00 54 1013.5
20260506143052 55 0 0.0 0.0 0.00 0.00 0.00 58 1013.5
20260506141600 53 0 0.0 0.0 0.00 0.00 0.00 62 1013.5
20260506140054 52 0 0.0 0.0 0.00 0.00 0.00 65 1013.5
20260506134554 50 0 0.0 0.0 0.00 0.00 0.00 74 1013.4
20260506133109 47 0 0.0 0.0 0.00 0.00 0.00 79 1013.2
20260506131554 45 0 0.0 0.0 0.00 0.00 0.00 81 1013.1
20260506130119 44 0 0.0 0.0 0.00 0.00 0.00 81 1013.2
20260506124554 43 0 0.0 0.0 0.00 0.00 0.00 81 1012.9
20260506123053 43 0 0.0 0.0 0.00 0.00 0.00 81 1012.8
20260506121553 44 0 0.0 0.0 0.00 0.00 0.00 81 1012.6
20260506120057 44 0 0.0 0.0 0.00 0.00 0.00 80 1012.5